DELTA 1 DEB, 7092

Orbit data source: Space-Track

DELTA 1 DEB, 7092 is space debris in SSO originally from a launch on Tue, 06 Nov 1973 UTC launched from the Air Force Western Test Range (AFWTR). Debris objects in space refer to the collection of defunct objects orbiting the Earth. Examples of debris include non-operational satellites, rocket bodies, and fragments generated from explosions, collisions, or faulty payload assembly.

Loading next visibility...
Identifier
7092, 1973-086CL
Orbit
SSO
Country
Flag of USUS
Related business
Manufacturer
Unknown
Mission
Spacecraft
Bus & Motor
Unknown
Mass
Unknown
Launch date (UTC)
1973-11-06 (52 years ago)
Launch vehicle
Unknown
Launch site
Air Force Western Test Range (AFWTR)
Object type
Payload
Rocket body
Debris
Shape & HBR
Unknown shape, 0.1 m
Radar Cross Section
Small (<0.1 m²)

Expand to show TLE details & history
Last TLE update: 2 days ago

TLE from 2 days ago
0 DELTA 1 DEB
1 07092U 73086CL  26033.30147911  .00000408  00000-0  10903-2 0  9999
2 07092 101.8093 325.7479 0316652 334.2116 178.5761 13.06988602484758
Epoch: 2026-02-02T07:14Z
TLE epoch observation values (Epoch: 2026-02-02T07:14:07.795Z)
Latitude
26.54031°
Longitude
-89.31841°
Altitude
1,478.86 km
Speed
7.013 km/s
True Right ascension
10h 06m 51s
True Declination
26° 24' 57"
Sunlit
Object was in full shadow at epoch
Visualization orbit readout
Latitude
Unknown
Longitude
Unknown
Altitude
Unknown
Speed
Unknown
Apparent Right ascension
Unknown
Apparent Declination
Unknown
Sunlit
N/A
Visualization observer readout
Local Sidereal Time
03:13:12
Azimuth
Unknown
Elevation
Unknown
Doppler factor
Unknown
Orbital elements
Apogee altitude
1,473.289 km
Perigee altitude
991.317 km
Semi-major axis
7,610.44 km
Eccentricity
0.03167
Inclination
101.8093°
RAAN
325.7479°
Arg. of periapsis
334.2116°
True anomaly
178.66283°
Mean anomaly
178.5761°
Eccentric anomaly
178.6198°
Mean motion
3.2691 °/min
Orbital period
110.12 mins
BSTAR
0.0010903
Loading maneuver chart data...
Computing Atmospheric mass density...
Loading historical data...
Loading historical data...
Loading historical data...
Loading historical data...
Loading historical data...
Loading historical data...
Loading historical data...

Documentation

Showing up to 5 results
|